www.pogodaiklimat.ru

Погода и климат >> Архив погоды >> Россия >> Камчатский край >> Петропавловск-Камчатский


АРХИВ ПОГОДЫ в Петропавловск-Камчатском

Время (UTC), дата Ветер
(напр.,м/с)
 
Видим.   Явления Облачность Т
(С)
Тd
(С)
f
(%)
Тe
(С)
Тes
(С)
Комфортность P
(гПа)
Po
(гПа)
Тmin
(С)
Tmax
(С)
R
(мм)
R24
(мм)
S
(см)
15 12.09 С 4 50 км ясно +9.3 +3.0 65 +7 +7 по сезону 1012.3 1009.4
18 12.09 С 4 50 км ясно +8.3 +2.4 66 +5 +5 по сезону 1013.9 1011.0
21 12.09 С 2 50 км ясно +7.0 +2.7 74 +5 +7 прохладно 1014.7 1011.8 +6.9
00 13.09 З 1 50 км ясно +12.1 +5.1 62 +12 +21 по сезону 1014.6 1011.7
03 13.09 ЮВ 4 50 км 1/1 1000 м
[Sc]
+13.4 +2.3 47 +12 +17 по сезону 1013.5 1010.6
06 13.09 ЮВ 5 50 км 3/3 600 м
[Sc]
+11.2 +6.0 70 +9 +9 по сезону 1013.4 1010.5
09 13.09 ЮВ 3 20 км 8/8 600 м
[Sc]
+8.9 +5.7 80 +6 +6 прохладно 1013.8 1010.9 +15.4
12 13.09 В 2 20 км 3/3 600 м
[Sc Ac trans]
+7.9 +5.6 85 +6 +6 по сезону 1013.4 1010.5
15 13.09 Ю 1 20 км 9/9 600 м
[Sc]
+7.9 +6.5 91 +7 +7 по сезону 1012.7 1009.8
18 13.09 С 2 20 км 5/4 600 м
[Sc Ci fib]
+6.9 +5.8 93 +5 +5 по сезону 1011.6 1008.6
21 13.09 С 2 50 км 3/3 600 м
[Sc Ci fib]
+7.4 +5.7 89 +5 +6 прохладно 1011.0 1008.0 +6.8
00 14.09 СЗ 2 50 км 5/5 1000 м
[Sc]
+12.6 +6.4 66 +12 +16 по сезону 1010.0 1007.1
03 14.09 ЮЗ 1 50 км 8/8 1000 м
[Sc]
+15.2 +4.5 49 +16 +18 тепло 1008.7 1005.8
06 14.09 ЮВ 3 20 км {ливн. осадки} 9/9 1000 м
[Sc]
+10.8 +4.1 63 +9 +9 по сезону 1008.7 1005.8
09 14.09 ЮВ 2 50 км 9/9 600 м
[Sc]
+9.1 +5.5 78 +7 +7 прохладно 1009.6 1006.7 +15.4 0.0
12 14.09 ЮВ 1 20 км 10/10 600 м
[Sc]
+8.4 +5.1 80 +8 +8 по сезону 1010.7 1007.7
15 14.09 штиль 0 20 км 10/10 600 м
[Sc]
+8.1 +5.3 82 +7 +7 по сезону 1011.4 1008.5
18 14.09 ЮВ 2 20 км 9/6 600 м
[Sc Ac trans Ci fib]
+7.7 +4.4 80 +6 +6 по сезону 1012.5 1009.6
21 14.09 штиль 0 20 км местами туман поземный 10/10 600 м
[Sc]
+8.5 +5.5 81 +8 +8 по сезону 1013.8 1010.9 +7.3
00 15.09 штиль 0 20 км {ливн. осадки} 9/8 600 м
[Cu Sc Ac trans]
+10.2 +5.1 71 +10 +11 по сезону 1014.3 1011.4
03 15.09 ЮВ 1 20 км 3/3 600 м
[Cu Sc]
+12.4 +5.5 63 +13 +19 тепло 1013.4 1010.5
06 15.09 ЮВ 3 50 км 1/1 600 м
[Sc]
+11.5 +6.2 70 +10 +11 по сезону 1013.4 1010.5
09 15.09 штиль 0 50 км ясно +8.8 +5.9 82 +8 +8 по сезону 1014.7 1011.8 +13.7 0.0
12 15.09 С 3 50 км ясно +8.1 +0.3 58 +6 +6 по сезону 1016.3 1013.4
15 15.09 С 3 50 км ясно +6.5 +2.5 76 +4 +4 прохладно 1016.9 1013.9
18 15.09 С 4 50 км 1/0
[Ci fib]
+5.3 +1.4 76 +1 +1 холодно 1017.4 1014.4
21 15.09 СЗ 4 50 км 9/3 600 м
[Sc Ac trans Ci fib]
+5.8 +2.3 78 +2 +2 холодно 1018.1 1015.2 +5.0
00 16.09 З 2 50 км 9/0
[Ac trans Ci fib]
+9.4 +3.0 64 +8 +13 по сезону 1018.0 1015.0
03 16.09 Ю 2 50 км 3/1 600 м
[Sc Ac trans Ci fib]
+12.6 +3.4 53 +12 +18 по сезону 1016.1 1013.2
06 16.09 ЮВ 4 50 км 9/1 600 м
[Sc Ac trans Ci fib]
+11.6 +5.2 65 +10 +10 по сезону 1016.0 1013.1
09 16.09 С 2 50 км 1/0
[Ac lent]
+11.2 +3.9 61 +10 +10 по сезону 1016.5 1013.6 +13.5
12 16.09 С 3 50 км ясно +9.9 +3.2 63 +8 +8 по сезону 1017.3 1014.4
15 16.09 С 3 50 км ясно +7.7 +2.8 71 +5 +5 по сезону 1017.4 1014.4
18 16.09 С 3 50 км ясно +7.2 +2.6 73 +4 +4 по сезону 1017.4 1014.4
21 16.09 СЗ 1 50 км 9/8 1000 м
[Sc Ac As]
+6.7 +3.3 79 +6 +6 по сезону 1018.8 1015.8 +6.7
00 17.09 СЗ 2 50 км 3/3 1000 м
[Sc Ci fib]
+11.1 +5.3 67 +10 +15 по сезону 1018.8 1015.9 +6.6
03 17.09 ЮВ 2 50 км 4/3 600 м
[Sc Ac As]
+12.8 +6.8 67 +12 +17 по сезону 1018.3 1015.4
06 17.09 ЮВ 3 50 км 4/3 600 м
[Sc Ac As]
+12.4 +6.9 69 +11 +12 по сезону 1018.9 1016.0
09 17.09 ЮВ 1 50 км 3/3 300 м
[St]
+9.4 +6.5 82 +9 +9 по сезону 1020.6 1017.6 +13.9
12 17.09 штиль 0 20 км 3/3 100 м
[St]
+8.3 +6.7 90 +7 +7 по сезону 1021.7 1018.8
15 17.09 С 2 10 км 10/10 200 м
[St]
+8.7 +7.3 91 +7 +7 по сезону 1022.7 1019.7
18 17.09 С 3 10 км 8/8 200 м
[St]
+6.7 +5.4 91 +4 +4 по сезону 1023.0 1020.0
21 17.09 СЗ 2 10 км туман на расстоянии 1/1 300 м
[St]
+5.7 +4.6 93 +3 +4 прохладно 1023.8 1020.8 +5.5
00 18.09 ЮВ 2 4000 м туман на расстоянии 8/8 300 м
[St]
+10.4 +7.0 79 +9 +10 по сезону 1023.4 1020.5
03 18.09 ЮВ 2 10 км 9/9 300 м
[St]
+11.5 +8.3 81 +10 +11 по сезону 1022.2 1019.3
06 18.09 ЮВ 3 10 км туман на расстоянии 10/10 200 м
[St]
+10.5 +8.8 89 +8 +8 по сезону 1021.4 1018.5
09 18.09 штиль 0 4000 м туман на расстоянии 10/10 300 м
[St]
+9.1 +7.8 92 +8 +8 по сезону 1021.2 1018.3 +11.7
12 18.09 З 1 4000 м туман на расстоянии 10/10 300 м
[St]
+9.1 +8.1 93 +8 +8 по сезону 1021.0 1018.1
15 18.09 штиль 0 500 м туман ?/? +8.4 +7.5 94 +7 +7 по сезону 1020.9 1018.0
18 18.09 С 2 500 м туман ?/? +7.2 +6.4 95 +5 +5 по сезону 1020.3 1017.3
21 18.09 ЮВ 2 2000 м дымка {туман} 10/10 100 м
[St]
+7.1 +6.3 95 +5 +5 по сезону 1019.8 1016.8 +6.6
00 19.09 З 1 2000 м дымка {туман} 10/10 100 м
[St]
+8.9 +7.7 92 +8 +8 по сезону 1018.9 1016.0
03 19.09 ЮВ 1 10 км туман на расстоянии 10/10 300 м
[St]
+10.8 +8.1 83 +11 +11 по сезону 1017.8 1014.8
06 19.09 ЮВ 3
{12}
10 км 10/10 300 м
[Sc]
+10.7 +8.3 85 +9 +9 по сезону 1016.8 1013.9
09 19.09 ЮВ 7-12
{12}
10 км слабый ливневой дождь 10/10 300 м
[Cb cap]
+10.0 +7.7 86 +6 +6 прохладно 1016.8 1013.8 +12.0 0.3
12 19.09 ЮВ 5
{12}
10 км в посл. час ливневой дождь 10/10 300 м
[St]
+9.7 +7.0 83 +6 +6 по сезону 1017.2 1014.3

 

Местоположение метеостанции Петропавловск-Камчатский (Камчатский край, Россия): широта 52.87 долгота 158.60 высота над уровнем моря 24 м.

В архиве по умолчанию представлена погода в Петропавловск-Камчатском за последнюю неделю. Архивные данные за месяц целиком и за предыдущие месяцы, начиная с января 2011 года, Вы можете получить, выбрав интересующий диапазон дат из раскрывающегося списка и нажав кнопку "Ввод!".

Внимание! Время в таблицах - всемирное. Для получения местного времени необходимо прибавить поправку, которая в Петропавловск-Камчатском равна 12 ч.

Смотрите также архив погоды в соседних городах и на ближайших метеорологических станциях:

Погода в Петропавловском Маяке (Камчатский край, Россия) (7 км)
Погода в Петропавловск-Камч. 2 (Камчатский край, Россия) (24 км)
Погода в Сосновке (Камчатский край, Россия) (31 км)
Погода в Начиках (Камчатский край, Россия) (66 км)
Погода в Водопадной (Камчатский край, Россия) (124 км)
Погода в Пущино (Камчатский край, Россия) (151 км)
Погода в Большерецке (Камчатский край, Россия) (155 км)
Погода в Семячике (Камчатский край, Россия) (163 км)
Погода в Мильково (Камчатский край, Россия) (201 км)
Погода в Озерной (Камчатский край, Россия) (215 км)

Пояснения к столбцам:

Ветер - указаны скорость ветра в м/с - средняя за 10 мин, порывы в срок и между сроками (в фигурных скобках) и направление, откуда дует ветер: С - северный, СВ - северо-восточный, В - восточный, ЮВ - юго-восточный, Ю - южный, ЮЗ - юго-западный, З - западный, СЗ - северо-западный.
Видимость - горизонтальная дальность видимости в метрах или километрах. При видимости от 1 до 10 км при отсутствии осадков обычно наблюдается дымка, при ухудшении видимости до 1 км и менее - туман. В сухую погоду видимость может ухудшаться дымом, пылью или мглою.
Явления - указаны атмосферные явления, наблюдавшиеся в срок или в последний час перед сроком; фигурными скобками обозначены явления, наблюдавшиеся между сроками (за 1-3 часа до срока); квадратными скобками обозначены град или гололедные отложения с указанием их диаметра в мм.
Облачность - указаны через наклонную черту общая и нижняя облачность в баллах и высота нижней границы облаков в метрах; квадратными скобками обозначены формы облаков: Ci - перистые, Cs - перисто-слоистые, Cc - перисто-кучевые, Ac - высококучевые, As - высокослоистые, Sc - слоисто-кучевые, Ns - слоисто-дождевые, Cu - кучевые, Cb - кучево-дождевые. Подробнее классификацию облаков см. в Атласе облаков (PDF).
T - Температура воздуха - температура, измеренная на высоте 2 м над землей.
Td - Температура точки росы - температура, при понижении до которой содержащийся в воздухе водяной пар достигнет насыщения.
f - Относительная влажность воздуха - влажноcть воздуха, измеренная на высоте 2 м над землей.
Te - Эффективная температура - температура, которую ощущает одетый по сезону человек в тени. Характеристика душности погоды. При расчете учитывается влияние влажности воздуха и скорости ветра на теплоощущения человека.
Tes - Эффективная температура на солнце - температура, которую ощущает человек, с поправкой на солнечный нагрев. Характеристика знойности погоды. Зависит от высоты солнца над горизонтом, облачности и скорости ветра. Ночью, в пасмурную погоду, а также при ветре 12 м/с и более поправка равна нулю.
P - Атмосферное давление - приведенное к уровню моря атмосферное давление.
Po - Атмосферное давление - измеренное на уровне метеостанции атмосферное давление.
Tmin - Минимальная температура - минимум температуры воздуха на высоте 2 м над землей.
Tmax - Максимальная температура - максимум температуры воздуха на высоте 2 м над землей.
R - Количество осадков - Количество выпавших осадков за период времени, мм. При наведении курсора мыши на число - период времени, за который выпало указанное количество осадков.
R24 - Количество осадков - Количество выпавших осадков за 24 часа, мм.
S - Снежный покров - Высота снежного покрова, см. При наведении курсора мыши на число - состояние снежного покрова и степень покрытия местности в баллах.